This is the latest recevied weather packets stored in our database for station/object K6GMW. If no packets are shown the sender has not sent any weather packets the latest 10 day(s).
| Time | Temp. | Humidity | Pressure | Rain* | Wind** | Luminosity | Snow |
|---|---|---|---|---|---|---|---|
| 1788128658 | 38.89° C | 28% | 1014.3 hPa | 0 mm | - | 327 W/m² | - |
| 1788128354 | 40° C | 28% | 1014.3 hPa | 0 mm | - | 353 W/m² | - |
| 1788128050 | 40° C | 28% | 1014.3 hPa | 0 mm | - | 372 W/m² | - |
| 1788127745 | 40° C | 29% | 1014.3 hPa | 0 mm | - | 385 W/m² | - |
| 1788127445 | 39.44° C | 30% | 1014.3 hPa | 0 mm | - | 404 W/m² | - |
| 1788127142 | 39.44° C | 29% | 1014.4 hPa | 0 mm | - | 410 W/m² | - |
| 1788126842 | 39.44° C | 29% | 1014.3 hPa | 0 mm | - | 422 W/m² | - |
| 1788126537 | 39.44° C | 29% | 1014.1 hPa | 0 mm | - | 453 W/m² | - |
| 1788126232 | 40° C | 28% | 1014.4 hPa | 0 mm | - | 468 W/m² | - |
| 1788125927 | 40° C | 29% | 1014.4 hPa | 0 mm | - | 472 W/m² | - |
| 1788125622 | 40° C | 29% | 1014.6 hPa | 0 mm | - | 504 W/m² | - |
| 1788125318 | 38.89° C | 30% | 1014.8 hPa | 0 mm | - | 526 W/m² | - |
| 1788125014 | 38.89° C | 29% | 1014.6 hPa | 0 mm | - | 467 W/m² | - |
| 1788124712 | 38.33° C | 30% | 1014.5 hPa | 0 mm | - | 338 W/m² | - |
| 1788124407 | 39.44° C | 30% | 1014.7 hPa | 0 mm | - | 203 W/m² | - |
| 1788124103 | 39.44° C | 29% | 1014.7 hPa | 0 mm | - | 634 W/m² | - |
| 1788123802 | 39.44° C | 29% | 1014.7 hPa | 0 mm | - | 684 W/m² | - |
| 1788123500 | 38.89° C | 30% | 1014.8 hPa | 0 mm | - | 729 W/m² | - |
| 1788123200 | 38.89° C | 31% | 1015 hPa | 0 mm | - | 740 W/m² | - |
| 1788122895 | 39.44° C | 31% | 1015.1 hPa | 0 mm | - | 760 W/m² | - |
| 1788122594 | 38.89° C | 30% | 1015.1 hPa | 0 mm | - | 760 W/m² | - |
| 1788122290 | 39.44° C | 29% | 1015.3 hPa | 0 mm | - | 771 W/m² | - |
| 1788121986 | 38.89° C | 30% | 1015.5 hPa | 0 mm | - | 793 W/m² | - |
| 1788121685 | 38.89° C | 30% | 1015.3 hPa | 0 mm | - | 820 W/m² | - |
| 1788121381 | 39.44° C | 29% | 1015.4 hPa | 0 mm | - | 829 W/m² | - |
* Rain latest hour (hover to see other rain measurements)
** Current wind speed in m/s (hover to see current wind gust speed)